Language: 


Des rapports , des résumés tant et plus, au choix de chacun....


Données statistiques de la station
Quotidien Rapport Février 6, 2018 Unités:  Anglais    Métrique   les deux
« Précédent Jour
Suivant Jour »
Quotidien Hebdomadaire Mensuel Annuel Actuel
  Haut: Bas: Moyen:
Température: TemperatureC °F -2.0 °F -0.3 °F
Pt de rosée: DewpointC °F -4.0 °F -3 °F
Humidité: Humidity % 69 % 84 %
Vitesse du vent: WindSpeedKMH mph 5.5 mph 12.7 mph
Rafales: WindSpeedGustKMH mph - -
Vent:- - NE
Pression: PressurehPa in 1012.1 in -
Précipitation: 0.0 in    
Historical Graphs
 
 
Données statistiques pour Février 6, 2018
Heure Température Point de rosée Pression Vent Vitesse du vent Refales Humidité Pluie (taux horaire)
TemperatureC °F DewpointC °F PressurehPa in Calm     Humidity % HourlyPrecipMM in
00:04 0.3 °F -1.0 °F 1018.8 in NE 12.6 mph 14.8 mph 90 % 0.0 in
00:09 0.3 °F -1.0 °F 1018.8 in NE 13.0 mph 15.1 mph 89 % 0.0 in
00:14 0.3 °F -1.0 °F 1018.2 in NE 13.7 mph 15.1 mph 89 % 0.0 in
00:19 0.2 °F -1.0 °F 1018.2 in NE 13.0 mph 16.9 mph 89 % 0.0 in
00:24 0.2 °F -1.0 °F 1018.2 in ENE 15.1 mph 17.2 mph 89 % 0.0 in
00:29 0.2 °F -1.0 °F 1018.2 in NE 11.9 mph 17.2 mph 89 % 0.0 in
00:34 0.2 °F -1.0 °F 1018.2 in ENE 12.2 mph 15.1 mph 89 % 0.0 in
00:39 0.2 °F -1.0 °F 1018.2 in ENE 12.2 mph 12.6 mph 89 % 0.0 in
00:44 0.2 °F -1.0 °F 1018.2 in ENE 12.2 mph 12.6 mph 89 % 0.0 in
00:49 0.2 °F -1.0 °F 1018.2 in ENE 12.2 mph 12.6 mph 89 % 0.0 in
00:54 0.1 °F -1.0 °F 1018.2 in ENE 12.2 mph 12.2 mph 89 % 0.0 in
00:59 0.1 °F -1.0 °F 1016.8 in ENE 12.2 mph 12.2 mph 88 % 0.0 in
01:04 0.1 °F -1.0 °F 1016.8 in NE 12.2 mph 12.2 mph 88 % 0.0 in
01:09 0.0 °F -3.0 °F 1016.8 in NE 12.2 mph 12.2 mph 88 % 0.0 in
01:14 0.0 °F -3.0 °F 1016.8 in NE 12.2 mph 12.2 mph 88 % 0.0 in
01:19 -0.1 °F -3.0 °F 1016.8 in ENE 9.3 mph 12.2 mph 88 % 0.0 in
01:24 -0.1 °F -3.0 °F 1016.8 in ENE 9.7 mph 12.2 mph 88 % 0.0 in
01:29 -0.1 °F -3.0 °F 1016.1 in ENE 9.7 mph 10.8 mph 88 % 0.0 in
01:34 -0.1 °F -3.0 °F 1016.1 in ENE 9.7 mph 9.7 mph 88 % 0.0 in
01:39 -0.1 °F -3.0 °F 1016.1 in ENE 10.5 mph 13.7 mph 88 % 0.0 in
01:44 -0.2 °F -3.0 °F 1016.8 in NNE 9.3 mph 13.7 mph 88 % 0.0 in
01:50 -0.2 °F -3.0 °F 1016.8 in NNE 9.3 mph 10.5 mph 88 % 0.0 in
01:55 -0.2 °F -3.0 °F 1016.8 in NNE 9.3 mph 9.3 mph 88 % 0.0 in
02:00 -0.3 °F -3.0 °F 1016.8 in NNE 12.6 mph 12.6 mph 88 % 0.0 in
02:05 -0.3 °F -3.0 °F 1016.8 in NE 9.3 mph 12.6 mph 88 % 0.0 in
02:10 -0.4 °F -3.0 °F 1016.8 in NE 9.3 mph 12.6 mph 88 % 0.0 in
02:15 -0.4 °F -3.0 °F 1016.8 in NE 12.6 mph 12.6 mph 88 % 0.0 in
02:20 -0.5 °F -3.0 °F 1016.8 in NE 12.6 mph 14.0 mph 88 % 0.0 in
02:21 -0.5 °F -3.0 °F 1016.8 in NE 12.6 mph 14.0 mph 88 % 0.0 in
02:26 -0.5 °F -3.0 °F 1016.8 in NE 11.6 mph 14.0 mph 88 % 0.0 in
02:31 -0.6 °F -3.0 °F 1016.8 in ENE 11.9 mph 12.6 mph 88 % 0.0 in
02:36 -0.6 °F -3.0 °F 1016.8 in ENE 10.1 mph 11.9 mph 88 % 0.0 in
02:41 -0.7 °F -3.0 °F 1016.8 in ENE 16.3 mph 16.3 mph 88 % 0.0 in
02:46 -0.7 °F -3.0 °F 1016.1 in NE 14.0 mph 16.3 mph 88 % 0.0 in
02:51 -0.7 °F -3.0 °F 1016.1 in NE 12.6 mph 16.3 mph 88 % 0.0 in
02:56 -0.8 °F -3.0 °F 1016.1 in ENE 16.3 mph 16.3 mph 88 % 0.0 in
03:01 -0.8 °F -3.0 °F 1016.1 in NNE 14.3 mph 16.3 mph 88 % 0.0 in
03:06 -0.9 °F -3.0 °F 1016.1 in ENE 12.2 mph 16.3 mph 88 % 0.0 in
03:11 -0.9 °F -3.0 °F 1016.1 in NE 11.9 mph 14.3 mph 88 % 0.0 in
03:16 -1.0 °F -3.0 °F 1015.1 in NE 13.7 mph 13.7 mph 89 % 0.0 in
03:21 -1.0 °F -3.0 °F 1015.1 in ENE 9.0 mph 13.7 mph 89 % 0.0 in
03:26 -1.1 °F -3.0 °F 1015.1 in NE 12.6 mph 15.1 mph 89 % 0.0 in
03:31 -1.1 °F -3.0 °F 1015.1 in ENE 10.1 mph 15.1 mph 90 % 0.0 in
03:36 -1.1 °F -3.0 °F 1015.1 in ENE 12.2 mph 15.1 mph 90 % 0.0 in
03:41 -1.2 °F -3.0 °F 1015.1 in ENE 9.0 mph 14.0 mph 90 % 0.0 in
03:46 -1.2 °F -3.0 °F 1015.1 in NE 11.9 mph 13.7 mph 90 % 0.0 in
03:51 -1.3 °F -3.0 °F 1015.1 in NE 6.9 mph 14.0 mph 90 % 0.0 in
03:56 -1.3 °F -3.0 °F 1015.1 in ENE 6.1 mph 14.0 mph 90 % 0.0 in
04:01 -1.4 °F -3.0 °F 1015.1 in NE 6.4 mph 11.9 mph 90 % 0.0 in
04:06 -1.4 °F -3.0 °F 1015.1 in ENE 8.7 mph 13.0 mph 90 % 0.0 in
04:11 -1.4 °F -3.0 °F 1015.1 in ENE 6.9 mph 13.0 mph 90 % 0.0 in
04:16 -1.5 °F -4.0 °F 1015.1 in ENE 9.0 mph 11.9 mph 90 % 0.0 in
04:21 -1.5 °F -3.0 °F 1015.1 in NE 10.5 mph 11.9 mph 91 % 0.0 in
04:26 -1.5 °F -3.0 °F 1015.1 in ENE 8.7 mph 10.5 mph 91 % 0.0 in
04:31 -1.4 °F -3.0 °F 1015.1 in ENE 9.3 mph 10.5 mph 91 % 0.0 in
04:36 -1.4 °F -3.0 °F 1015.1 in NE 13.0 mph 13.7 mph 92 % 0.0 in
04:41 -1.4 °F -3.0 °F 1015.1 in NE 10.5 mph 14.0 mph 92 % 0.0 in
04:47 -1.3 °F -3.0 °F 1015.1 in NE 5.5 mph 14.0 mph 92 % 0.0 in
04:52 -1.4 °F -3.0 °F 1015.1 in ENE 7.9 mph 13.0 mph 92 % 0.0 in
04:57 -1.4 °F -3.0 °F 1015.1 in NNE 10.5 mph 13.0 mph 91 % 0.0 in
05:02 -1.4 °F -3.0 °F 1014.1 in ENE 6.4 mph 13.7 mph 91 % 0.0 in
05:07 -1.4 °F -3.0 °F 1014.1 in NE 6.9 mph 13.7 mph 91 % 0.0 in
05:12 -1.4 °F -3.0 °F 1014.1 in NNE 10.5 mph 12.2 mph 91 % 0.0 in
05:17 -1.5 °F -3.0 °F 1015.1 in NNE 10.8 mph 12.2 mph 92 % 0.0 in
05:22 -1.5 °F -3.0 °F 1015.1 in NE 13.7 mph 14.0 mph 92 % 0.0 in
05:27 -1.5 °F -3.0 °F 1015.1 in NNE 12.6 mph 14.0 mph 92 % 0.0 in
05:32 -1.5 °F -3.0 °F 1014.1 in NE 11.9 mph 13.7 mph 92 % 0.0 in
05:37 -1.5 °F -3.0 °F 1014.1 in NNE 5.5 mph 13.7 mph 93 % 0.0 in
05:42 -1.5 °F -3.0 °F 1014.1 in NNE 9.3 mph 12.6 mph 93 % 0.0 in
05:47 -1.5 °F -3.0 °F 1015.1 in NNE 7.9 mph 13.7 mph 93 % 0.0 in
05:52 -1.5 °F -3.0 °F 1015.1 in North 10.1 mph 13.7 mph 93 % 0.0 in
05:57 -1.5 °F -3.0 °F 1015.1 in NNE 10.5 mph 13.7 mph 93 % 0.0 in
06:02 -1.5 °F -3.0 °F 1014.1 in North 9.3 mph 16.6 mph 93 % 0.0 in
06:07 -1.5 °F -3.0 °F 1014.1 in NNE 9.0 mph 16.6 mph 93 % 0.0 in
06:12 -1.6 °F -3.0 °F 1014.1 in NNE 15.8 mph 15.8 mph 93 % 0.0 in
06:17 -1.6 °F -3.0 °F 1014.1 in NNE 12.6 mph 15.8 mph 93 % 0.0 in
06:22 -1.6 °F -3.0 °F 1014.1 in NE 12.2 mph 15.8 mph 93 % 0.0 in
06:27 -1.6 °F -3.0 °F 1014.1 in North 11.1 mph 14.0 mph 93 % 0.0 in
06:32 -1.6 °F -3.0 °F 1014.1 in ENE 10.5 mph 13.0 mph 93 % 0.0 in
06:38 -1.6 °F -3.0 °F 1014.1 in NE 8.7 mph 14.0 mph 93 % 0.0 in
06:43 -1.6 °F -3.0 °F 1014.1 in NNE 11.1 mph 14.0 mph 93 % 0.0 in
06:48 -1.7 °F -3.0 °F 1014.1 in NNE 10.1 mph 14.0 mph 93 % 0.0 in
06:53 -1.7 °F -3.0 °F 1014.1 in NE 13.7 mph 19.1 mph 93 % 0.0 in
06:58 -1.8 °F -3.0 °F 1014.1 in NE 13.7 mph 19.1 mph 93 % 0.0 in
07:03 -1.8 °F -3.0 °F 1014.1 in NE 13.7 mph 16.6 mph 93 % 0.0 in
07:08 -1.8 °F -3.0 °F 1014.1 in NE 13.0 mph 16.6 mph 93 % 0.0 in
07:13 -1.9 °F -3.0 °F 1014.1 in NE 12.6 mph 16.3 mph 93 % 0.0 in
07:18 -1.9 °F -3.0 °F 1014.1 in NE 13.0 mph 16.3 mph 93 % 0.0 in
07:23 -1.9 °F -3.0 °F 1014.1 in ENE 9.0 mph 16.3 mph 94 % 0.0 in
07:28 -1.9 °F -3.0 °F 1014.1 in NNE 9.0 mph 15.8 mph 94 % 0.0 in
07:33 -1.9 °F -3.0 °F 1014.1 in NNE 13.7 mph 15.1 mph 94 % 0.0 in
07:38 -1.9 °F -3.0 °F 1014.1 in NNE 10.1 mph 14.0 mph 94 % 0.0 in
07:43 -1.9 °F -3.0 °F 1014.1 in NNE 12.2 mph 14.0 mph 94 % 0.0 in
07:48 -2.0 °F -3.0 °F 1014.1 in North 15.4 mph 15.4 mph 95 % 0.0 in
07:53 -2.0 °F -3.0 °F 1014.1 in NNE 11.9 mph 15.4 mph 95 % 0.0 in
07:58 -2.0 °F -3.0 °F 1014.1 in NNE 11.9 mph 13.7 mph 95 % 0.0 in
08:03 -2.0 °F -3.0 °F 1014.1 in NNE 11.9 mph 11.9 mph 95 % 0.0 in
08:08 -2.0 °F -3.0 °F 1014.1 in NE 9.7 mph 11.9 mph 95 % 0.0 in
08:13 -2.0 °F -3.0 °F 1014.1 in NNE 13.0 mph 15.8 mph 95 % 0.0 in
08:18 -1.9 °F -3.0 °F 1014.1 in NE 14.0 mph 15.8 mph 94 % 0.0 in
08:23 -1.9 °F -3.0 °F 1014.1 in NE 13.7 mph 14.0 mph 94 % 0.0 in
08:28 -1.9 °F -3.0 °F 1014.1 in NE 13.7 mph 14.0 mph 93 % 0.0 in
08:33 -1.9 °F -3.0 °F 1014.1 in NE 16.3 mph 16.3 mph 93 % 0.0 in
08:38 -1.9 °F -3.0 °F 1014.1 in NE 14.0 mph 16.3 mph 93 % 0.0 in
08:43 -1.8 °F -3.0 °F 1014.1 in NE 14.0 mph 16.3 mph 92 % 0.0 in
08:48 -1.8 °F -3.0 °F 1014.1 in NNE 10.5 mph 14.0 mph 92 % 0.0 in
08:53 -1.8 °F -3.0 °F 1014.1 in NNE 10.5 mph 14.0 mph 92 % 0.0 in
08:59 -1.7 °F -3.0 °F 1014.1 in NNE 13.7 mph 16.9 mph 92 % 0.0 in
09:04 -1.7 °F -3.0 °F 1014.1 in NNE 13.7 mph 16.9 mph 91 % 0.0 in
09:09 -1.7 °F -3.0 °F 1014.1 in NE 14.0 mph 14.0 mph 91 % 0.0 in
09:14 -1.7 °F -3.0 °F 1014.1 in NE 14.0 mph 14.0 mph 91 % 0.0 in
09:19 -1.6 °F -3.0 °F 1014.1 in NE 14.0 mph 14.0 mph 91 % 0.0 in
09:24 -1.6 °F -4.0 °F 1014.1 in NE 14.0 mph 14.0 mph 90 % 0.0 in
09:29 -1.6 °F -4.0 °F 1014.1 in NE 14.0 mph 14.0 mph 90 % 0.0 in
09:34 -1.6 °F -4.0 °F 1014.1 in NE 14.0 mph 14.0 mph 90 % 0.0 in
09:39 -1.6 °F -4.0 °F 1014.1 in NNE 14.0 mph 14.0 mph 90 % 0.0 in
09:44 -1.6 °F -4.0 °F 1014.1 in NE 16.3 mph 16.3 mph 90 % 0.0 in
09:49 -1.6 °F -4.0 °F 1014.1 in NE 14.0 mph 16.3 mph 90 % 0.0 in
09:54 -1.5 °F -4.0 °F 1014.1 in NNE 14.0 mph 16.9 mph 89 % 0.0 in
09:59 -1.4 °F -3.0 °F 1014.1 in NNE 14.0 mph 16.9 mph 89 % 0.0 in
10:04 -1.4 °F -3.0 °F 1014.1 in NNE 14.0 mph 16.3 mph 89 % 0.0 in
10:10 -1.3 °F -3.0 °F 1014.1 in NE 13.7 mph 14.0 mph 89 % 0.0 in
10:15 -1.2 °F -3.0 °F 1014.1 in NE 13.7 mph 14.0 mph 89 % 0.0 in
10:20 -1.1 °F -3.0 °F 1014.1 in NE 13.7 mph 13.7 mph 88 % 0.0 in
10:25 -1.1 °F -3.0 °F 1014.1 in NE 13.7 mph 13.7 mph 88 % 0.0 in
10:30 -1.0 °F -3.0 °F 1014.1 in NE 13.7 mph 13.7 mph 87 % 0.0 in
10:35 -1.0 °F -3.0 °F 1014.1 in NE 16.9 mph 20.1 mph 87 % 0.0 in
10:40 -1.0 °F -4.0 °F 1014.1 in ENE 12.2 mph 20.1 mph 86 % 0.0 in
10:45 -1.0 °F -4.0 °F 1014.1 in NNE 12.6 mph 16.9 mph 86 % 0.0 in
10:50 -0.8 °F -4.0 °F 1014.1 in NNE 12.6 mph 16.6 mph 85 % 0.0 in
10:55 -0.7 °F -3.0 °F 1014.1 in NNE 12.6 mph 12.6 mph 85 % 0.0 in
11:00 -0.5 °F -3.0 °F 1014.1 in NE 15.1 mph 15.1 mph 85 % 0.0 in
11:05 -0.4 °F -4.0 °F 1014.1 in NE 15.1 mph 15.1 mph 83 % 0.0 in
11:10 -0.4 °F -4.0 °F 1014.1 in NE 15.1 mph 15.1 mph 82 % 0.0 in
11:15 -0.3 °F -4.0 °F 1014.1 in NE 15.1 mph 15.1 mph 81 % 0.0 in
11:20 -0.4 °F -4.0 °F 1014.1 in NE 15.1 mph 15.1 mph 80 % 0.0 in
11:25 -0.4 °F -4.0 °F 1014.1 in NE 15.1 mph 15.1 mph 79 % 0.0 in
11:30 -0.2 °F -4.0 °F 1014.1 in NNE 16.9 mph 16.9 mph 80 % 0.0 in
11:35 0.0 °F -4.0 °F 1014.1 in NNE 16.9 mph 16.9 mph 80 % 0.0 in
11:40 0.1 °F -3.0 °F 1014.1 in NNE 16.9 mph 16.9 mph 80 % 0.0 in
11:45 0.2 °F -3.0 °F 1014.1 in NNE 16.9 mph 16.9 mph 80 % 0.0 in
11:51 0.3 °F -3.0 °F 1014.1 in NNE 16.3 mph 16.9 mph 79 % 0.0 in
11:56 0.4 °F -3.0 °F 1014.1 in NNE 16.9 mph 16.9 mph 79 % 0.0 in
12:01 0.4 °F -2.0 °F 1013.1 in NNE 14.0 mph 17.7 mph 80 % 0.0 in
12:06 0.3 °F -3.0 °F 1013.1 in NE 13.7 mph 17.7 mph 79 % 0.0 in
12:11 0.2 °F -3.0 °F 1013.1 in NE 13.7 mph 16.9 mph 79 % 0.0 in
12:16 0.2 °F -3.0 °F 1014.1 in NE 13.7 mph 13.7 mph 79 % 0.0 in
12:21 0.3 °F -3.0 °F 1014.1 in NE 19.8 mph 19.8 mph 79 % 0.0 in
12:26 0.4 °F -2.0 °F 1014.1 in NE 19.8 mph 19.8 mph 80 % 0.0 in
12:31 0.4 °F -2.0 °F 1013.1 in NE 19.8 mph 19.8 mph 80 % 0.0 in
12:36 0.4 °F -3.0 °F 1013.1 in NE 19.8 mph 19.8 mph 79 % 0.0 in
12:41 0.4 °F -3.0 °F 1013.1 in NE 19.8 mph 19.8 mph 79 % 0.0 in
12:46 0.4 °F -3.0 °F 1013.1 in NE 19.8 mph 19.8 mph 79 % 0.0 in
12:51 0.5 °F -2.0 °F 1013.1 in NE 19.8 mph 19.8 mph 79 % 0.0 in
12:56 0.7 °F -2.0 °F 1013.1 in NE 19.8 mph 19.8 mph 79 % 0.0 in
13:01 0.7 °F -3.0 °F 1013.1 in NE 19.8 mph 19.8 mph 78 % 0.0 in
13:06 0.6 °F -3.0 °F 1013.1 in NE 19.8 mph 19.8 mph 77 % 0.0 in
13:11 0.7 °F -3.0 °F 1013.1 in NE 19.8 mph 19.8 mph 78 % 0.0 in
13:16 0.8 °F -2.0 °F 1012.1 in NE 19.8 mph 19.8 mph 78 % 0.0 in
13:21 1.0 °F -2.0 °F 1012.1 in NE 19.8 mph 19.8 mph 77 % 0.0 in
13:26 1.1 °F -2.0 °F 1012.1 in NE 19.8 mph 19.8 mph 77 % 0.0 in
13:31 1.4 °F -2.0 °F 1013.1 in NE 19.8 mph 19.8 mph 76 % 0.0 in
13:36 1.4 °F -2.0 °F 1013.1 in NE 19.8 mph 19.8 mph 75 % 0.0 in
13:41 1.3 °F -3.0 °F 1013.1 in NE 19.8 mph 19.8 mph 74 % 0.0 in
13:46 1.3 °F -2.0 °F 1013.1 in NE 19.8 mph 19.8 mph 75 % 0.0 in
13:51 1.2 °F -2.0 °F 1013.1 in NE 19.8 mph 19.8 mph 75 % 0.0 in
13:56 1.2 °F -2.0 °F 1013.1 in NE 19.8 mph 19.8 mph 75 % 0.0 in
14:01 1.3 °F -2.0 °F 1013.1 in NE 19.8 mph 19.8 mph 75 % 0.0 in
14:06 1.5 °F -2.0 °F 1013.1 in NE 19.8 mph 19.8 mph 75 % 0.0 in
14:12 1.7 °F -2.0 °F 1013.1 in NE 19.8 mph 19.8 mph 74 % 0.0 in
14:17 1.8 °F -3.0 °F 1013.1 in NE 19.8 mph 19.8 mph 73 % 0.0 in
14:22 1.7 °F -3.0 °F 1013.1 in NE 19.8 mph 19.8 mph 72 % 0.0 in
14:27 1.6 °F -3.0 °F 1013.1 in NE 19.8 mph 19.8 mph 71 % 0.0 in
14:32 1.6 °F -3.0 °F 1013.1 in NE 19.8 mph 19.8 mph 73 % 0.0 in
14:37 1.5 °F -3.0 °F 1013.1 in NE 19.8 mph 19.8 mph 73 % 0.0 in
14:42 1.4 °F -3.0 °F 1013.1 in NE 19.8 mph 19.8 mph 73 % 0.0 in
14:47 1.5 °F -3.0 °F 1012.1 in NE 19.8 mph 19.8 mph 73 % 0.0 in
14:52 1.5 °F -3.0 °F 1012.1 in NE 19.8 mph 19.8 mph 72 % 0.0 in
14:57 1.5 °F -3.0 °F 1012.1 in NE 19.8 mph 19.8 mph 72 % 0.0 in
15:02 1.5 °F -3.0 °F 1012.1 in NE 19.8 mph 19.8 mph 71 % 0.0 in
15:07 1.8 °F -3.0 °F 1012.1 in NE 19.8 mph 19.8 mph 71 % 0.0 in
15:12 1.9 °F -3.0 °F 1012.1 in NE 19.8 mph 19.8 mph 71 % 0.0 in
15:17 1.8 °F -3.0 °F 1012.1 in NE 19.8 mph 19.8 mph 70 % 0.0 in
15:22 1.7 °F -3.0 °F 1012.1 in NE 19.8 mph 19.8 mph 71 % 0.0 in
15:27 1.7 °F -3.0 °F 1012.1 in NE 19.8 mph 19.8 mph 72 % 0.0 in
15:32 1.6 °F -3.0 °F 1012.1 in NE 19.8 mph 19.8 mph 72 % 0.0 in
15:37 1.8 °F -3.0 °F 1012.1 in NE 19.8 mph 19.8 mph 71 % 0.0 in
15:42 2.0 °F -2.0 °F 1012.1 in NE 19.8 mph 19.8 mph 72 % 0.0 in
15:47 2.0 °F -2.0 °F 1012.1 in NE 15.8 mph 15.8 mph 71 % 0.0 in
15:52 1.9 °F -3.0 °F 1012.1 in NE 15.8 mph 15.8 mph 70 % 0.0 in
15:57 1.8 °F -3.0 °F 1012.1 in NE 15.8 mph 15.8 mph 70 % 0.0 in
16:02 1.7 °F -3.0 °F 1012.1 in NE 15.8 mph 15.8 mph 70 % 0.0 in
16:07 1.8 °F -3.0 °F 1012.1 in NNE 16.3 mph 16.3 mph 69 % 0.0 in
16:12 1.8 °F -3.0 °F 1012.1 in NNE 16.3 mph 16.3 mph 70 % 0.0 in
16:17 1.7 °F -3.0 °F 1012.1 in NNE 16.3 mph 16.3 mph 69 % 0.0 in
16:22 1.6 °F -3.0 °F 1012.1 in NNE 16.3 mph 16.3 mph 69 % 0.0 in
16:34 1.6 °F -3.0 °F 1012.1 in NNE 16.3 mph 16.3 mph 70 % 0.0 in
16:39 1.5 °F -3.0 °F 1012.1 in NNE 16.3 mph 16.3 mph 70 % 0.0 in
16:44 1.5 °F -3.0 °F 1013.1 in NNE 16.3 mph 16.3 mph 71 % 0.0 in
16:49 1.5 °F -3.0 °F 1013.1 in NNE 16.3 mph 16.3 mph 72 % 0.0 in
16:54 1.4 °F -3.0 °F 1013.1 in North 13.0 mph 13.0 mph 72 % 0.0 in
16:59 1.4 °F -3.0 °F 1012.1 in NE 14.0 mph 16.6 mph 72 % 0.0 in
17:04 1.3 °F -3.0 °F 1012.1 in NE 12.2 mph 16.6 mph 72 % 0.0 in
17:09 1.3 °F -3.0 °F 1012.1 in NE 12.2 mph 15.4 mph 72 % 0.0 in
17:14 1.2 °F -3.0 °F 1013.1 in NE 12.2 mph 12.2 mph 72 % 0.0 in
17:19 1.2 °F -3.0 °F 1013.1 in NE 12.2 mph 12.2 mph 72 % 0.0 in
17:24 1.1 °F -3.0 °F 1013.1 in NE 12.2 mph 12.2 mph 72 % 0.0 in
17:29 1.1 °F -3.0 °F 1013.1 in NE 12.2 mph 12.2 mph 72 % 0.0 in
17:34 1.0 °F -3.0 °F 1013.1 in NE 12.2 mph 12.2 mph 73 % 0.0 in
17:39 0.9 °F -3.0 °F 1013.1 in NE 12.2 mph 12.2 mph 74 % 0.0 in
17:44 0.8 °F -3.0 °F 1013.1 in NE 12.2 mph 12.2 mph 74 % 0.0 in
17:50 0.8 °F -3.0 °F 1013.1 in NE 12.2 mph 12.2 mph 75 % 0.0 in
17:55 0.8 °F -3.0 °F 1013.1 in NE 12.2 mph 12.2 mph 75 % 0.0 in
18:00 0.7 °F -3.0 °F 1013.1 in NE 8.7 mph 8.7 mph 76 % 0.0 in
18:05 0.7 °F -3.0 °F 1013.1 in NE 8.7 mph 8.7 mph 76 % 0.0 in
18:10 0.7 °F -3.0 °F 1013.1 in NE 8.7 mph 8.7 mph 77 % 0.0 in
18:15 0.6 °F -3.0 °F 1013.1 in NE 8.7 mph 8.7 mph 77 % 0.0 in
18:20 0.6 °F -3.0 °F 1013.1 in NE 8.7 mph 8.7 mph 78 % 0.0 in
18:25 0.6 °F -3.0 °F 1013.1 in NE 8.7 mph 8.7 mph 78 % 0.0 in
18:30 0.6 °F -3.0 °F 1013.1 in NE 8.7 mph 8.7 mph 78 % 0.0 in
18:35 0.6 °F -3.0 °F 1013.1 in NE 8.7 mph 8.7 mph 78 % 0.0 in
18:40 0.5 °F -3.0 °F 1013.1 in NE 8.7 mph 8.7 mph 78 % 0.0 in
18:45 0.5 °F -3.0 °F 1013.1 in NE 8.7 mph 8.7 mph 78 % 0.0 in
18:50 0.5 °F -3.0 °F 1013.1 in NE 8.7 mph 8.7 mph 78 % 0.0 in
18:55 0.5 °F -3.0 °F 1013.1 in NE 8.7 mph 8.7 mph 78 % 0.0 in
19:00 0.5 °F -3.0 °F 1013.1 in NE 8.7 mph 8.7 mph 78 % 0.0 in
19:05 0.4 °F -3.0 °F 1013.1 in NE 8.7 mph 8.7 mph 78 % 0.0 in
19:10 0.4 °F -3.0 °F 1013.1 in NE 8.7 mph 8.7 mph 78 % 0.0 in
19:15 0.3 °F -3.0 °F 1013.1 in NE 8.7 mph 8.7 mph 78 % 0.0 in
19:20 0.3 °F -3.0 °F 1013.1 in NE 8.7 mph 8.7 mph 78 % 0.0 in
19:25 0.3 °F -3.0 °F 1013.1 in NE 8.7 mph 8.7 mph 78 % 0.0 in
19:30 0.2 °F -3.0 °F 1013.1 in NE 8.7 mph 8.7 mph 78 % 0.0 in
19:35 0.2 °F -3.0 °F 1013.1 in NE 8.7 mph 8.7 mph 79 % 0.0 in
19:40 0.1 °F -3.0 °F 1013.1 in NE 8.7 mph 8.7 mph 79 % 0.0 in
19:45 0.1 °F -3.0 °F 1013.1 in NE 8.7 mph 8.7 mph 80 % 0.0 in
19:50 0.0 °F -4.0 °F 1013.1 in NE 8.7 mph 8.7 mph 80 % 0.0 in
19:55 -0.1 °F -4.0 °F 1013.1 in NE 8.7 mph 8.7 mph 81 % 0.0 in
20:00 -0.2 °F -4.0 °F 1013.1 in NE 8.7 mph 8.7 mph 81 % 0.0 in
20:05 -0.3 °F -4.0 °F 1013.1 in NE 8.7 mph 8.7 mph 82 % 0.0 in
20:10 -0.4 °F -4.0 °F 1013.1 in NE 8.7 mph 8.7 mph 82 % 0.0 in
20:15 -0.4 °F -4.0 °F 1013.1 in NE 8.7 mph 8.7 mph 83 % 0.0 in
20:20 -0.5 °F -4.0 °F 1013.1 in NE 8.7 mph 8.7 mph 83 % 0.0 in
20:25 -0.5 °F -4.0 °F 1013.1 in NE 8.7 mph 8.7 mph 84 % 0.0 in
20:30 -0.5 °F -4.0 °F 1013.1 in NE 8.7 mph 8.7 mph 84 % 0.0 in
20:35 -0.5 °F -4.0 °F 1013.1 in NE 8.7 mph 8.7 mph 84 % 0.0 in
20:41 -0.5 °F -3.0 °F 1013.1 in NE 8.7 mph 8.7 mph 85 % 0.0 in
20:46 -0.5 °F -3.0 °F 1013.1 in NE 8.7 mph 8.7 mph 85 % 0.0 in
20:51 -0.6 °F -3.0 °F 1013.1 in NE 8.7 mph 8.7 mph 85 % 0.0 in
20:56 -0.6 °F -3.0 °F 1013.1 in NE 8.7 mph 8.7 mph 85 % 0.0 in
21:01 -0.6 °F -3.0 °F 1014.1 in NE 8.7 mph 8.7 mph 85 % 0.0 in
21:06 -0.7 °F -3.0 °F 1014.1 in NE 8.7 mph 8.7 mph 85 % 0.0 in
21:11 -0.7 °F -3.0 °F 1014.1 in NE 8.7 mph 8.7 mph 85 % 0.0 in
21:16 -0.7 °F -3.0 °F 1014.1 in NE 8.7 mph 8.7 mph 85 % 0.0 in
21:21 -0.7 °F -3.0 °F 1014.1 in NE 8.7 mph 8.7 mph 85 % 0.0 in
21:26 -0.7 °F -3.0 °F 1014.1 in NE 8.7 mph 8.7 mph 86 % 0.0 in
21:31 -0.7 °F -3.0 °F 1014.1 in NE 8.7 mph 8.7 mph 86 % 0.0 in
21:36 -0.7 °F -3.0 °F 1014.1 in NE 8.7 mph 8.7 mph 86 % 0.0 in
21:41 -0.7 °F -3.0 °F 1014.1 in NE 8.7 mph 8.7 mph 87 % 0.0 in
21:47 -0.7 °F -3.0 °F 1014.1 in NE 8.7 mph 8.7 mph 87 % 0.0 in
21:52 -0.7 °F -3.0 °F 1014.1 in NE 8.7 mph 8.7 mph 87 % 0.0 in
21:57 -0.6 °F -3.0 °F 1014.1 in NE 8.7 mph 8.7 mph 87 % 0.0 in
22:02 -0.6 °F -3.0 °F 1014.1 in NE 8.7 mph 8.7 mph 88 % 0.0 in
22:07 -0.5 °F -3.0 °F 1014.1 in NE 8.7 mph 8.7 mph 88 % 0.0 in
22:12 -0.6 °F -3.0 °F 1014.1 in NE 8.7 mph 8.7 mph 87 % 0.0 in
22:17 -0.6 °F -3.0 °F 1014.1 in NE 8.7 mph 8.7 mph 87 % 0.0 in
22:22 -0.6 °F -3.0 °F 1014.1 in NE 8.7 mph 8.7 mph 87 % 0.0 in
22:27 -0.6 °F -3.0 °F 1014.1 in NE 8.7 mph 8.7 mph 86 % 0.0 in
22:32 -0.5 °F -3.0 °F 1014.1 in NE 8.7 mph 8.7 mph 86 % 0.0 in
22:37 -0.5 °F -3.0 °F 1014.1 in ENE 10.1 mph 10.1 mph 85 % 0.0 in
22:42 -0.5 °F -3.0 °F 1014.1 in NNE 11.6 mph 11.6 mph 85 % 0.0 in
22:47 -0.5 °F -3.0 °F 1014.1 in NE 13.0 mph 13.0 mph 85 % 0.0 in
22:52 -0.5 °F -4.0 °F 1014.1 in NE 12.2 mph 13.0 mph 84 % 0.0 in
22:57 -0.5 °F -4.0 °F 1014.1 in NE 13.7 mph 16.6 mph 83 % 0.0 in
23:02 -0.5 °F -4.0 °F 1014.1 in NE 13.0 mph 16.6 mph 82 % 0.0 in
23:07 -0.5 °F -4.0 °F 1014.1 in NE 14.0 mph 14.0 mph 82 % 0.0 in
23:12 -0.5 °F -4.0 °F 1014.1 in NNE 11.9 mph 14.0 mph 81 % 0.0 in
23:17 -0.5 °F -4.0 °F 1014.1 in NE 12.2 mph 14.0 mph 81 % 0.0 in
23:22 -0.6 °F -4.0 °F 1014.1 in NE 14.0 mph 14.0 mph 81 % 0.0 in
23:27 -0.6 °F -4.0 °F 1014.1 in NE 15.4 mph 15.4 mph 81 % 0.0 in
23:32 -0.6 °F -4.0 °F 1014.1 in NE 8.7 mph 15.4 mph 82 % 0.0 in
23:37 -0.6 °F -4.0 °F 1014.1 in NNE 13.7 mph 13.7 mph 82 % 0.0 in
23:42 -0.6 °F -4.0 °F 1014.1 in NNE 13.7 mph 13.7 mph 82 % 0.0 in
23:47 -0.7 °F -4.0 °F 1014.1 in NNE 13.7 mph 13.7 mph 82 % 0.0 in
23:52 -0.7 °F -4.0 °F 1014.1 in NNE 13.7 mph 13.7 mph 81 % 0.0 in
23:57 -0.7 °F -4.0 °F 1014.1 in NNE 8.7 mph 13.7 mph 81 % 0.0 in
Le Gheer Warneton
Courtoisie de Weather Underground - 2.25 mb

Mise a jour : 24/02/2018 01:23:11
Généré par Cumulus 1.9.4 (1099)